星链-5968 (STARLINK-5968 )

导读

STARLINK-5968是美国太空探索技术公司(SpaceX)星链卫星互联网项目的一员,于2023年3月24日发射入轨,属于星链低轨星座组网卫星,服务全球宽带互联网接入,该卫星已在轨运行近3年,目前维持轨道运行,参与星链网络覆盖,助力服务民用通信、导航增强等领域的需求。

基本信息
目录编号:
56010
目录名称:
STARLINK-5968
国际标识:
2023-042AA
轨道中心:
EARTH
卫星名称:
星链-5968
卫星全名:
星链-5968 (STARLINK-5968 )
卫星状态:
在轨 (已飞行1260 天)
发射日期:
2023-03-24 UTC
国别 :
美国 (US)
星等 :
--
轨道信息
数据来源 国际轨道数据
星历时间: 2026-09-04T00:50:49+0800
16小时前
查看轨道信息
半长轴: 6861.187km
偏心率: 0.0001389
轨道倾角: 43.002°
近地点辐角 261.326°
升交点赤经 134.317°
平近点角 98.743°
近地点: 482.096km
远地点: 484.004km
周期: 94.267分钟
每日圈数: 15.275798
详细信息
固有亮度:
5
最大亮度:
2.5
卫星平台:
Starlink v1.5
覆盖范围:
全球
运营商:
太空探索技术公司
运营商所在国:
美国
制造商(研发单位):
太空探索技术公司
制造商所在国:
美国
使用方式:
暂无
卫星简介
星链(Starlink)计划是由太空探索技术公司(SpaceX)提出的一个巨型低轨卫星互联网星座项目,计划在2019年至2024年间在太空搭建由约1.2万颗卫星组成的“星链”网络,其中1584颗将部署在地球上空550千米处的近地轨道,并从2020年开始工作。该卫星仍在工作。
2D轨道图
3D轨道图
轨道高度分析图
轨道倾角分析图
轨道综合分析图
查看轨道综合分析图
交会数据列表
事件ID 空间交会对象 最接近时刻(TCA) 交会距离 交会风险概率(CRP) 交会风险指数(CRI) 操作
CDM_260906-060905-601006-651921
2026-09-06T
06:09:32+0000
0.636 km
远距离
8.600079E-5 中风险 0.74
CDM_260828-102505-601006-731121
2026-08-28T
10:25:17+0000
1.395 km
极远距离
5.437672E-6 低风险 0.5
CDM_260831-215605-601006-216022
2026-08-31T
21:56:10+0000
1.583 km
极远距离
3.709391E-6 低风险 0.46
CDM_260906-074305-601006-651921
2026-09-06T
07:43:41+0000
1.809 km
极远距离
2.884091E-6 低风险 0.44
CDM_260831-202205-601006-216022
2026-08-31T
20:22:01+0000
1.732 km
极远距离
2.833005E-6 低风险 0.44
CDM_260828-115905-601006-731122
2026-08-28T
11:59:26+0000
1.936 km
极远距离
2.054046E-6 低风险 0.41
CDM_260904-192804-378405-601023
SNUGLITE (43784)
2026-09-04T
19:28:45+0000
2.308 km
极远距离
2.009287E-6 低风险 0.41
CDM_260906-043505-601006-651921
2026-09-06T
04:35:23+0000
2.732 km
极远距离
1.197524E-6 低风险 0.37